[[{"header":{"parameterUnit":"m.s-1","parameterCategory":2,"la1":30.2991,"la2":30.254,"lo1":-89.0895,"lo2":-89.0444,"dy":0.0017,"dx":0.0017,"nx":28,"ny":28,"refTime":"2025-04-22T21:00:00:Z","depth":"0","parameterNumber":2,"parameterNumberName":"U-component_of_CURRENTS"},"data":[0,0,0,0,0,0,0,0,0,0,0,0,0,0,0,0,0,0,0,0,0,0,0,0,0,0,0,0,0,0,0,0,0,0,0,0,0,0,0,0,0,0,0,0,0,0,0,0,0,0,0,0,0,0,0,0,0,0,0.239,0.239,0,0.2438,0.2438,0.2439,0.2473,0.2474,0.2474,0.2475,0.2489,0.2489,0.2489,0,0,0,0,0,0,0,0,0,0,0,0,0,0.2317,0.2318,0.239,0.239,0.2391,0.2438,0.2438,0.2439,0.2473,0.2474,0.2474,0.2475,0.2489,0.2489,0.2489,0,0,0,0,0,0,0,0,0,0,0,0,0,0.2353,0.2318,0.2389,0.2415,0.2418,0.2438,0.2438,0.2439,0.2473,0.2474,0.2475,0.2475,0.2489,0.2489,0.2489,0.2474,0,0,0.2489,0.2489,0,0,0,0,0,0,0,0,0.2351,0.2356,0.2411,0.2414,0.2417,0.2452,0.2418,0.245,0.2473,0.245,0.2475,0.2476,0.2474,0.2475,0.2481,0.2475,0.2476,0.2489,0.2489,0.2488,0.2488,0,0,0,0,0,0,0,0.2349,0.2354,0.2407,0.2412,0.2415,0.2421,0.2427,0.2424,0.2455,0.2452,0.2455,0.2464,0.2476,0.2481,0.2481,0.2476,0.2489,0.2488,0.2488,0.2488,0.2476,0.2475,0,0,0,0,0,0,0.2347,0.2351,0.2405,0.2408,0.2387,0.2422,0.2429,0.2438,0.2456,0.2461,0.2463,0.2465,0.248,0.2481,0.2482,0.2482,0.2488,0.2488,0.2488,0.2476,0.2476,0.2475,0,0,0,0,0,0,0.2345,0.2351,0.2403,0.2382,0.239,0.2423,0.2434,0.2439,0.245,0.2465,0.2469,0.247,0.2481,0.2482,0.2483,0.2482,0.2488,0.2488,0.2476,0.2476,0.2476,0.2471,0,0,0,0,0,0,0.2343,0.235,0.2352,0.2382,0.2391,0.2416,0.2433,0.244,0.2455,0.2458,0.2472,0.2474,0.2482,0.2483,0.2483,0.2482,0.2488,0.2477,0.2476,0.2476,0.2471,0.247,0.2469,0,0,0,0,0,0.234,0.2337,0.2351,0.2358,0.2394,0.2416,0.242,0.2445,0.2455,0.2458,0.2467,0.2474,0.248,0.2482,0.2482,0.2482,0.2477,0.2476,0.2476,0.2472,0.2471,0.2469,0,0,0,0,0,0,0.2302,0.2341,0.2358,0.2366,0.2392,0.2423,0.2426,0.2444,0.2454,0.2454,0.2469,0.2471,0.2476,0.2474,0.2477,0.2476,0.2479,0.2479,0.2476,0.2475,0.2474,0.2476,0.2488,0,0,0,0,0,0.2296,0.2306,0.2345,0.2351,0.2364,0.2395,0.2405,0.2423,0.244,0.2446,0.2455,0.2462,0.2471,0.247,0.2476,0.2468,0.249,0.2467,0.2466,0.2466,0.2466,0.25,0.2502,0.2473,0.2473,0.2473,0,0,0.2279,0.2305,0.2308,0.2344,0.2364,0.2378,0.2402,0.2418,0.2427,0.2443,0.2448,0.246,0.2469,0.2471,0.2471,0.2469,0.2486,0.2465,0.2464,0.2466,0.2499,0.2502,0.2505,0.2473,0.2473,0.2473,0,0,0.2255,0.2278,0.2283,0.2305,0.234,0.2361,0.2366,0.2397,0.2409,0.2416,0.2435,0.2447,0.2448,0.2462,0.2468,0.2461,0.2485,0.2459,0.245,0.2482,0.2485,0.2488,0.2527,0.2533,0.2452,0.2452,0.2452,0,0.2233,0.2251,0.2284,0.2299,0.2316,0.2353,0.2361,0.2376,0.2401,0.2411,0.2414,0.244,0.2447,0.2463,0.2461,0.2461,0.2485,0.2455,0.2482,0.2486,0.2489,0.2528,0.2535,0.2452,0.2452,0.2452,0.2452,0,0.2221,0.2236,0.2239,0.2273,0.2293,0.2303,0.2338,0.235,0.2367,0.2388,0.2408,0.2423,0.2442,0.2444,0.2449,0.2471,0.2485,0.2484,0.2488,0.2492,0.2532,0.254,0.2452,0.2452,0.2452,0.2452,0,0,0.2168,0.2219,0.222,0.2235,0.2282,0.2293,0.2312,0.2341,0.2355,0.2375,0.2394,0.2412,0.2431,0.2438,0.2452,0.2472,0.2516,0.2482,0.2484,0.2526,0.2597,0.26,0.2609,0.2523,0.2524,0.2525,0.262,0,0.2148,0.2166,0.22,0.2211,0.2226,0.2269,0.2283,0.2313,0.2342,0.2366,0.2395,0.2416,0.2426,0.2437,0.2461,0.2504,0.2534,0.2491,0.2582,0.2585,0.2593,0.2617,0.247,0.2541,0.2627,0.2628,0.2629,0,0.2124,0.2146,0.2155,0.2193,0.2202,0.2211,0.2251,0.2269,0.2318,0.2343,0.2379,0.2408,0.2448,0.2451,0.2535,0.2508,0.2552,0.2583,0.2588,0.2598,0.2603,0.2549,0.2552,0.2403,0.2641,0.264,0.2639,0,0.2075,0.2109,0.2115,0.2129,0.2177,0.2184,0.2208,0.2258,0.2282,0.2334,0.2357,0.2414,0.2443,0.2504,0.2579,0.2559,0.2677,0.2658,0.2707,0.2708,0.2603,0.2593,0.2475,0.2721,0.2721,0.2721,0.272,0,0.2042,0.2043,0.209,0.2092,0.2102,0.2146,0.2163,0.2199,0.2252,0.2282,0.2339,0.2383,0.2457,0.2534,0.2593,0.2686,0.2697,0.2717,0.2735,0.2598,0.2587,0.247,0.2442,0.2724,0.2723,0.2723,0.2722,0,0.1984,0.2014,0.2025,0.2067,0.2079,0.2084,0.2138,0.2149,0.2209,0.2252,0.227,0.237,0.2474,0.2562,0.2675,0.2705,0.2703,0.2823,0.2665,0.2662,0.2546,0.2525,0.2449,0.2391,0.2877,0.2877,0.2878,0,0.1956,0.1958,0.1997,0.2001,0.2017,0.2039,0.2051,0.2119,0.2145,0.2251,0.2267,0.2384,0.2463,0.2639,0.2722,0.2834,0.2733,0.2752,0.268,0.2526,0.2515,0.2438,0.2388,0.2542,0.2539,0.2538,0.2536,0,0.1907,0.1921,0.193,0.1944,0.1952,0.1972,0.2001,0.2024,0.2104,0.2151,0.2244,0.2319,0.249,0.2548,0.2693,0.2739,0.2574,0.2719,0.2581,0.2268,0.2153,0.2109,0.2505,0.252,0.2521,0.2523,0.2524,0.2524,0.1864,0.186,0.1873,0.1879,0.189,0.1898,0.1898,0.1947,0.1993,0.2062,0.2181,0.2245,0.2324,0.2514,0.2567,0.2462,0.252,0.2337,0.2338,0.2283,0.2171,0.2551,0.2574,0.2576,0.2577,0.2579,0.258,0,0.1804,0.1804,0.1807,0.181,0.1796,0.1828,0.1852,0.1848,0.1883,0.197,0.2053,0.2066,0.2096,0.2148,0.2126,0.2054,0.1977,0.196,0.1757,0.1742,0.2074,0.1998,0.1867,0.1867,0.1867,0.1867,0.1868,0.1868,0.1768,0.1745,0.175,0.1717,0.1718,0.1685,0.169,0.1704,0.1744,0.1758,0.1753,0.1808,0.1807,0.1764,0.1649,0.1623,0.1486,0.143,0.147,0.1616,0.1647,0.1677,0.1591,0.1378,0.1377,0.1007,0.1004,0.1002]},{"header":{"parameterUnit":"m.s-1","parameterCategory":2,"la1":30.2991,"la2":30.254,"lo1":-89.0895,"lo2":-89.0444,"dy":0.0017,"dx":0.0017,"nx":28,"ny":28,"refTime":"2025-04-22T21:00:00:Z","depth":"0","parameterNumber":3,"parameterNumberName":"V-component_of_CURRENTS"},"data":[0,0,0,0,0,0,0,0,0,0,0,0,0,0,0,0,0,0,0,0,0,0,0,0,0,0,0,0,0,0,0,0,0,0,0,0,0,0,0,0,0,0,0,0,0,0,0,0,0,0,0,0,0,0,0,0,0,0,0.0082,0.0082,0,0.0003,0.0002,0.0001,-0.0046,-0.0046,-0.0046,-0.0046,-0.0098,-0.0099,-0.0101,0,0,0,0,0,0,0,0,0,0,0,0,0,0.014,0.0139,0.0082,0.0081,0.0081,0.0003,0.0002,0.0001,-0.0046,-0.0046,-0.0046,-0.0046,-0.0098,-0.0099,-0.0101,0,0,0,0,0,0,0,0,0,0,0,0,0,0.0092,0.0139,0.0082,0.0049,0.0045,0.0004,0.0002,0.0001,-0.0046,-0.0046,-0.0046,-0.0046,-0.0097,-0.0099,-0.0101,-0.0111,0,0,-0.0107,-0.0108,0,0,0,0,0,0,0,0,0.0095,0.009,0.0055,0.0051,0.0047,-0.001,0.0003,-0.0035,-0.0046,-0.0013,-0.0046,-0.0046,-0.0065,-0.007,-0.0087,-0.0114,-0.0116,-0.0107,-0.0108,-0.0109,-0.011,0,0,0,0,0,0,0,0.0098,0.0093,0.0049,0.0054,0.0049,0.002,0.0013,-0.0005,-0.0038,-0.0016,-0.0019,-0.0025,-0.0067,-0.0085,-0.0088,-0.0117,-0.0107,-0.0109,-0.011,-0.0111,-0.013,-0.0129,0,0,0,0,0,0,0.0114,0.0096,0.0052,0.0047,0.0073,0.0019,0.0012,0.0007,-0.0039,-0.0045,-0.0025,-0.0027,-0.0081,-0.0086,-0.009,-0.0075,-0.0109,-0.0111,-0.0112,-0.0131,-0.013,-0.0129,0,0,0,0,0,0,0.0115,0.0111,0.0055,0.0071,0.0062,0.0019,0.0014,0.0006,-0.0009,-0.0046,-0.0052,-0.003,-0.0082,-0.0087,-0.0097,-0.0079,-0.0112,-0.0114,-0.0131,-0.013,-0.0129,-0.0064,0,0,0,0,0,0,0.0117,0.0112,0.0113,0.0072,0.0062,0.0042,0.0014,0.0004,-0.0012,-0.0015,-0.0052,-0.0058,-0.0082,-0.0094,-0.0099,-0.0082,-0.0115,-0.0132,-0.0131,-0.013,-0.0067,-0.0061,-0.0055,0,0,0,0,0,0.012,0.0126,0.0114,0.0108,0.0065,0.0043,0.0035,0.0002,-0.0012,-0.0012,-0.0037,-0.0056,-0.009,-0.0095,-0.0102,-0.0084,-0.0133,-0.0131,-0.013,-0.0069,-0.0062,-0.0055,0,0,0,0,0,0,0.0153,0.012,0.0106,0.0102,0.008,0.0036,0.0031,0.0009,-0.0014,-0.0016,-0.0051,-0.0058,-0.0057,-0.0081,-0.0087,-0.0086,-0.0113,-0.0113,-0.0065,-0.0058,-0.0052,-0.0045,-0.0117,0,0,0,0,0,0.0161,0.0156,0.0122,0.012,0.0112,0.0073,0.0059,0.0038,0.0013,0.0002,-0.0023,-0.0046,-0.0057,-0.0066,-0.0081,-0.0085,-0.0101,-0.0077,-0.0071,-0.0066,-0.0064,-0.0072,-0.0067,-0.0124,-0.0124,-0.0124,0,0,0.0173,0.0155,0.0152,0.0127,0.0106,0.01,0.0064,0.0051,0.0049,0.0001,-0.0005,-0.0025,-0.0052,-0.0052,-0.0054,-0.007,-0.0055,-0.0064,-0.0059,-0.006,-0.007,-0.0064,-0.0059,-0.0123,-0.0123,-0.0123,0,0,0.0197,0.0181,0.0185,0.0169,0.0144,0.0124,0.0125,0.0088,0.0076,0.0064,0.0038,0.0028,0.0001,-0.0011,-0.0021,0.0006,-0.0021,0.0003,0.0033,0.0026,0.0031,0.0034,0.0033,0.0037,0.0002,0.0002,0.0002,0,0.0213,0.0209,0.0184,0.0183,0.0176,0.014,0.0145,0.0129,0.0095,0.0093,0.0074,0.0045,0.0022,0.0026,0.0034,0.002,0.0011,0.0011,0.0034,0.0037,0.004,0.0038,0.0041,0.0005,0.0005,0.0004,0.0004,0,0.0236,0.0233,0.0236,0.0225,0.0219,0.0215,0.0195,0.0191,0.0172,0.0152,0.015,0.0115,0.0096,0.0092,0.0068,0.0082,0.0068,0.0047,0.0019,0.005,0.0046,0.0047,0.001,0.0009,0.0008,0.0007,0,0,0.0266,0.0254,0.0254,0.0257,0.0238,0.0236,0.0246,0.024,0.025,0.0219,0.0227,0.0203,0.0178,0.0165,0.0138,0.0127,0.0142,0.0097,0.0095,0.01,0.0132,0.0131,0.0133,0.0124,0.0124,0.0124,0.0125,0,0.0288,0.03,0.0287,0.0303,0.0308,0.029,0.0301,0.0296,0.0286,0.0288,0.0257,0.025,0.0208,0.0201,0.0187,0.0154,0.0147,0.0144,0.0096,0.0095,0.0094,0.0135,0.0172,0.0177,0.0126,0.0127,0.0127,0,0.031,0.0314,0.0332,0.0341,0.0343,0.035,0.0366,0.0373,0.0371,0.0363,0.0351,0.032,0.0305,0.0261,0.0223,0.0222,0.0183,0.0153,0.0152,0.0128,0.0098,0.0134,0.0181,0.0121,0.0129,0.0129,0.0129,0,0.0337,0.0346,0.0363,0.0362,0.0368,0.038,0.0389,0.0395,0.0412,0.0411,0.0418,0.0388,0.0377,0.0326,0.0262,0.0242,0.0222,0.0185,0.0149,0.0149,0.0159,0.0158,0.0145,0.0158,0.0158,0.0158,0.0158,0,0.036,0.0375,0.0376,0.0384,0.0415,0.041,0.0446,0.0452,0.0468,0.0501,0.0456,0.0476,0.0391,0.0365,0.0295,0.024,0.0248,0.0166,0.0152,0.0184,0.0186,0.0114,0.0073,0.0158,0.0158,0.0158,0.0158,0,0.0387,0.0384,0.0407,0.0419,0.0427,0.0452,0.0485,0.0513,0.0519,0.0563,0.0563,0.0548,0.0521,0.0439,0.0369,0.0292,0.0207,0.0205,0.0252,0.0243,0.0139,0.0101,0.0075,0.0054,0.0164,0.0164,0.0164,0,0.0401,0.0414,0.0437,0.0456,0.0461,0.0495,0.0521,0.0539,0.0575,0.0616,0.0645,0.063,0.0649,0.0548,0.0421,0.0315,0.0237,0.0249,0.0209,0.0152,0.0098,0.0075,0.0058,0.0253,0.0254,0.0254,0.0255,0,0.0431,0.0437,0.0458,0.0496,0.0524,0.0566,0.0607,0.0645,0.0679,0.0725,0.0795,0.0817,0.073,0.0663,0.05,0.0403,0.0225,0.0256,0.0189,0.0164,0.0148,0.0117,0.0233,0.026,0.026,0.0259,0.0259,0.0259,0.0455,0.0477,0.0501,0.0542,0.0581,0.0639,0.0687,0.0744,0.0824,0.0924,0.0933,0.1006,0.0866,0.0665,0.0526,0.028,0.0267,0.0206,0.0165,0.0147,0.0127,0.0258,0.027,0.0269,0.0269,0.0269,0.0268,0,0.0479,0.0506,0.0546,0.0598,0.0652,0.0664,0.0746,0.0811,0.0924,0.1037,0.1125,0.1112,0.095,0.072,0.0393,0.0229,0.0159,0.0132,0.0108,0.0093,0.0209,0.0212,0.0223,0.0223,0.0223,0.0223,0.0223,0.0223,0.0494,0.0534,0.0557,0.0649,0.0693,0.0776,0.0831,0.0936,0.1033,0.1193,0.126,0.129,0.1092,0.0557,0.0202,0.0122,0.0017,0.0011,-0.0063,0.001,0.0014,0.0017,0.001,-0.0021,-0.0021,-0.0138,-0.0139,-0.014]}],[{"header":{"parameterUnit":"m.s-1","parameterCategory":2,"la1":30.2991,"la2":30.254,"lo1":-89.0895,"lo2":-89.0444,"dy":0.0017,"dx":0.0017,"nx":28,"ny":28,"refTime":"2025-04-22T21:00:00:Z","depth":"2","parameterNumber":2,"parameterNumberName":"U-component_of_CURRENTS"},"data":[0,0,0,0,0,0,0,0,0,0,0,0,0,0,0,0,0,0,0,0,0,0,0,0,0,0,0,0,0,0,0,0,0,0,0,0,0,0,0,0,0,0,0,0,0,0,0,0,0,0,0,0,0,0,0,0,0,0,0.1838,0.1838,0,0.1817,0.1817,0.1816,0.1804,0.1804,0.1805,0.1805,0.1741,0.1739,0.1737,0,0,0,0,0,0,0,0,0,0,0,0,0,0.1882,0.1881,0.1838,0.1838,0.1838,0.1818,0.1817,0.1816,0.1804,0.1804,0.1805,0.1805,0.1741,0.1739,0.1737,0,0,0,0,0,0,0,0,0,0,0,0,0,0.1859,0.188,0.1838,0.1832,0.1832,0.1818,0.1817,0.1816,0.1804,0.1804,0.1805,0.1805,0.1742,0.1739,0.1736,0.171,0,0,0.1727,0.1726,0,0,0,0,0,0,0,0,0.186,0.1857,0.1833,0.1833,0.1832,0.1817,0.1809,0.178,0.1804,0.1811,0.1805,0.1805,0.1764,0.1759,0.175,0.1707,0.1704,0.1727,0.1725,0.1724,0.1723,0,0,0,0,0,0,0,0.1861,0.1858,0.1826,0.1833,0.1833,0.1836,0.1833,0.1803,0.1782,0.181,0.181,0.1814,0.1763,0.1753,0.1748,0.1703,0.1727,0.1725,0.1723,0.1722,0.1656,0.1656,0,0,0,0,0,0,0.187,0.1859,0.1827,0.1826,0.1852,0.1835,0.1831,0.1819,0.1783,0.1779,0.1813,0.1813,0.1758,0.1752,0.1746,0.1738,0.1724,0.1721,0.172,0.1656,0.1656,0.1656,0,0,0,0,0,0,0.187,0.1866,0.1828,0.1846,0.1842,0.1834,0.182,0.1818,0.1817,0.1787,0.1781,0.1816,0.1758,0.175,0.1726,0.1735,0.172,0.1717,0.1656,0.1656,0.1656,0.1705,0,0,0,0,0,0,0.1871,0.1866,0.1863,0.1846,0.1841,0.1822,0.182,0.1817,0.182,0.182,0.1787,0.1781,0.1758,0.173,0.1723,0.173,0.1715,0.1656,0.1656,0.1656,0.1704,0.1707,0.171,0,0,0,0,0,0.1873,0.1859,0.1863,0.1859,0.1835,0.1822,0.1819,0.1814,0.182,0.1815,0.1797,0.1783,0.1726,0.1728,0.1719,0.1726,0.1656,0.1656,0.1656,0.1702,0.1707,0.171,0,0,0,0,0,0,0.1871,0.1856,0.186,0.1841,0.1838,0.1822,0.1817,0.182,0.1802,0.1803,0.1777,0.1769,0.1754,0.1729,0.1733,0.1707,0.1691,0.1689,0.1729,0.1732,0.1735,0.1743,0.1712,0,0,0,0,0,0.1873,0.1858,0.1852,0.1838,0.1837,0.1832,0.1829,0.1827,0.1812,0.1805,0.1788,0.1766,0.1745,0.1732,0.1707,0.1687,0.1699,0.1687,0.169,0.1693,0.1693,0.1717,0.1723,0.1657,0.1657,0.1657,0,0,0.1866,0.186,0.185,0.1838,0.1833,0.1826,0.1829,0.1824,0.1822,0.1799,0.1788,0.1775,0.1742,0.1725,0.1716,0.1707,0.1724,0.1693,0.1696,0.1694,0.1718,0.1725,0.1731,0.1657,0.1657,0.1657,0,0,0.1847,0.1844,0.1827,0.1828,0.183,0.1826,0.183,0.1823,0.1823,0.1812,0.1801,0.1794,0.1757,0.1743,0.1728,0.173,0.1741,0.1727,0.1746,0.177,0.1777,0.1782,0.1835,0.1844,0.1727,0.1727,0.1727,0,0.1845,0.1825,0.1823,0.1816,0.1822,0.1828,0.1824,0.1819,0.1809,0.1814,0.1812,0.1789,0.1764,0.1752,0.1756,0.1738,0.1767,0.1738,0.1777,0.1782,0.1787,0.1839,0.1849,0.1729,0.1729,0.1729,0.1729,0,0.1815,0.1811,0.1803,0.1798,0.1801,0.1799,0.1803,0.181,0.1819,0.182,0.1824,0.1803,0.1796,0.1788,0.1769,0.179,0.1806,0.1783,0.1773,0.1797,0.185,0.186,0.1733,0.1732,0.1731,0.1731,0,0,0.1791,0.1783,0.1785,0.1791,0.1799,0.1798,0.1802,0.181,0.1825,0.1824,0.1844,0.1818,0.1834,0.1818,0.1809,0.1822,0.1887,0.1822,0.1822,0.1886,0.1975,0.195,0.1958,0.1881,0.1882,0.1883,0.201,0,0.1777,0.1762,0.1765,0.1767,0.1767,0.1788,0.1796,0.1809,0.1822,0.1842,0.1843,0.185,0.1837,0.1849,0.1863,0.1876,0.191,0.1857,0.1931,0.1934,0.1917,0.1966,0.1733,0.1823,0.202,0.2021,0.2022,0,0.1757,0.1754,0.1748,0.177,0.1773,0.1778,0.1814,0.1821,0.1848,0.1864,0.1886,0.1893,0.192,0.1901,0.1963,0.1937,0.1965,0.1975,0.1979,0.194,0.1925,0.1823,0.1833,0.2038,0.2037,0.2036,0.2035,0,0.1752,0.1751,0.175,0.1755,0.177,0.1786,0.1802,0.1832,0.1848,0.1888,0.1915,0.1945,0.197,0.2006,0.2044,0.2014,0.2119,0.2076,0.2086,0.2086,0.1892,0.1872,0.2126,0.2126,0.2126,0.2125,0.2125,0,0.1739,0.1742,0.175,0.175,0.1768,0.1787,0.1815,0.1838,0.1876,0.1902,0.1934,0.1967,0.1997,0.2057,0.2083,0.2135,0.2163,0.2107,0.2115,0.1905,0.1886,0.2059,0.205,0.213,0.2129,0.2128,0.2127,0,0.1726,0.1727,0.1734,0.1753,0.1764,0.1779,0.1819,0.1832,0.1884,0.1925,0.1944,0.2001,0.2079,0.213,0.2194,0.2183,0.223,0.2241,0.2012,0.199,0.2174,0.2165,0.2258,0.2258,0.2258,0.2258,0.2258,0,0.1715,0.1715,0.1735,0.1736,0.1743,0.1769,0.1783,0.1831,0.1847,0.1944,0.1957,0.2051,0.2095,0.2204,0.2166,0.2218,0.2283,0.2064,0.194,0.2188,0.2187,0.2178,0.2169,0.1719,0.1714,0.1711,0.1708,0,0.1695,0.1705,0.17,0.1709,0.172,0.1735,0.1762,0.178,0.1841,0.1887,0.1959,0.201,0.207,0.1985,0.2043,0.204,0.203,0.1995,0.231,0.1722,0.1689,0.1685,0.1692,0.1676,0.1679,0.1682,0.1683,0.1685,0.168,0.1672,0.1666,0.1671,0.1682,0.169,0.1686,0.1718,0.175,0.1746,0.1848,0.1831,0.1808,0.1743,0.174,0.1741,0.1869,0.1786,0.1792,0.1804,0.1718,0.1687,0.1661,0.1664,0.1666,0.1669,0.1671,0,0.1638,0.163,0.1627,0.1618,0.1602,0.164,0.1653,0.1608,0.1619,0.1593,0.1596,0.1415,0.1366,0.142,0.1334,0.1361,0.1303,0.1354,0.1233,0.1265,0.1293,0.1178,0.0979,0.0978,0.0976,0.0975,0,0,0.1609,0.1573,0.1567,0.153,0.1538,0.1501,0.15,0.1445,0.1399,0.1262,0.1193,0.1168,0.1293,0.1052,0.105,0.101,0.1126,0.0978,0.1521,0.1404,0.143,0.1527,0.1384,0,0,0,0,0]},{"header":{"parameterUnit":"m.s-1","parameterCategory":2,"la1":30.2991,"la2":30.254,"lo1":-89.0895,"lo2":-89.0444,"dy":0.0017,"dx":0.0017,"nx":28,"ny":28,"refTime":"2025-04-22T21:00:00:Z","depth":"2","parameterNumber":3,"parameterNumberName":"V-component_of_CURRENTS"},"data":[0,0,0,0,0,0,0,0,0,0,0,0,0,0,0,0,0,0,0,0,0,0,0,0,0,0,0,0,0,0,0,0,0,0,0,0,0,0,0,0,0,0,0,0,0,0,0,0,0,0,0,0,0,0,0,0,0,0,-0.0518,-0.0519,0,-0.0565,-0.0566,-0.0566,-0.0614,-0.0615,-0.0615,-0.0616,-0.0715,-0.0717,-0.0719,0,0,0,0,0,0,0,0,0,0,0,0,0,-0.0463,-0.0464,-0.0518,-0.0519,-0.0519,-0.0565,-0.0566,-0.0567,-0.0614,-0.0615,-0.0616,-0.0616,-0.0714,-0.0716,-0.0719,0,0,0,0,0,0,0,0,0,0,0,0,0,-0.0496,-0.0464,-0.0518,-0.0549,-0.0552,-0.0565,-0.0566,-0.0567,-0.0614,-0.0615,-0.0616,-0.0617,-0.0713,-0.0716,-0.0719,-0.0716,0,0,-0.0728,-0.0729,0,0,0,0,0,0,0,0,-0.0494,-0.0498,-0.0544,-0.0547,-0.0551,-0.0585,-0.0583,-0.062,-0.0614,-0.059,-0.0616,-0.0617,-0.0676,-0.0682,-0.0687,-0.0721,-0.0725,-0.0728,-0.073,-0.0731,-0.0732,0,0,0,0,0,0,0,-0.0491,-0.0496,-0.0536,-0.0544,-0.0549,-0.0559,-0.0564,-0.059,-0.0627,-0.0592,-0.0596,-0.0602,-0.0678,-0.0684,-0.069,-0.0727,-0.0728,-0.0731,-0.0733,-0.0734,-0.082,-0.082,0,0,0,0,0,0,-0.0486,-0.0494,-0.0535,-0.0538,-0.0525,-0.0559,-0.0565,-0.0573,-0.0626,-0.0634,-0.0601,-0.0604,-0.0678,-0.0686,-0.0693,-0.073,-0.0731,-0.0734,-0.0736,-0.0819,-0.082,-0.0821,0,0,0,0,0,0,-0.0485,-0.0489,-0.0533,-0.0517,-0.0524,-0.0559,-0.0567,-0.0573,-0.0595,-0.0632,-0.0642,-0.0618,-0.0679,-0.0689,-0.0727,-0.0733,-0.0736,-0.0738,-0.0819,-0.082,-0.082,-0.0781,0,0,0,0,0,0,-0.0483,-0.0488,-0.0496,-0.0517,-0.0524,-0.0542,-0.0566,-0.0573,-0.0596,-0.0601,-0.065,-0.0659,-0.0681,-0.0722,-0.073,-0.0737,-0.0741,-0.0818,-0.0819,-0.082,-0.0781,-0.078,-0.0779,0,0,0,0,0,-0.0481,-0.048,-0.0496,-0.0501,-0.0532,-0.0542,-0.0547,-0.0575,-0.0596,-0.06,-0.0638,-0.0658,-0.0734,-0.0725,-0.0734,-0.0742,-0.0818,-0.0819,-0.082,-0.0782,-0.078,-0.0779,0,0,0,0,0,0,-0.0455,-0.0486,-0.0503,-0.0512,-0.0529,-0.0551,-0.0557,-0.0579,-0.0611,-0.0622,-0.0661,-0.0673,-0.0709,-0.0732,-0.0721,-0.0771,-0.0781,-0.0784,-0.0749,-0.0747,-0.0746,-0.0724,-0.0743,0,0,0,0,0,-0.0453,-0.0465,-0.0491,-0.0498,-0.0507,-0.0535,-0.0546,-0.0565,-0.0593,-0.0608,-0.0646,-0.0686,-0.0716,-0.0738,-0.0767,-0.0792,-0.0796,-0.0806,-0.0804,-0.0803,-0.0792,-0.0808,-0.0807,-0.0824,-0.0824,-0.0824,0,0,-0.0444,-0.0463,-0.047,-0.0494,-0.051,-0.0516,-0.0544,-0.0558,-0.057,-0.0614,-0.0647,-0.0682,-0.0723,-0.075,-0.0769,-0.0773,-0.0799,-0.0804,-0.0803,-0.0792,-0.0809,-0.0807,-0.0805,-0.0825,-0.0825,-0.0825,0,0,-0.0424,-0.0449,-0.0452,-0.0465,-0.049,-0.0506,-0.0513,-0.0544,-0.0566,-0.0597,-0.0633,-0.0668,-0.0722,-0.0745,-0.0765,-0.0775,-0.0791,-0.0795,-0.0771,-0.0787,-0.0785,-0.0783,-0.0772,-0.077,-0.0795,-0.0795,-0.0795,0,-0.0411,-0.0423,-0.0452,-0.0456,-0.0464,-0.0502,-0.0501,-0.0523,-0.0565,-0.058,-0.0605,-0.0677,-0.0714,-0.074,-0.0747,-0.077,-0.0775,-0.077,-0.0782,-0.0781,-0.078,-0.077,-0.0768,-0.0793,-0.0793,-0.0793,-0.0794,0,-0.0397,-0.0405,-0.0404,-0.0426,-0.0437,-0.044,-0.0472,-0.0492,-0.0528,-0.0554,-0.0595,-0.0643,-0.0682,-0.0706,-0.0731,-0.0747,-0.075,-0.0776,-0.0779,-0.0775,-0.0765,-0.0764,-0.0791,-0.0791,-0.0792,-0.0792,0,0,-0.0362,-0.0391,-0.0389,-0.0392,-0.0422,-0.0425,-0.0442,-0.0465,-0.0473,-0.0526,-0.0536,-0.0601,-0.063,-0.0654,-0.0693,-0.0712,-0.0711,-0.074,-0.0742,-0.0716,-0.0726,-0.0624,-0.0613,-0.0742,-0.0742,-0.0742,-0.0716,0,-0.034,-0.0342,-0.0361,-0.0354,-0.0357,-0.0387,-0.0396,-0.0422,-0.0455,-0.0474,-0.0528,-0.0556,-0.061,-0.0626,-0.0655,-0.0696,-0.0708,-0.0714,-0.0746,-0.0746,-0.0645,-0.0609,-0.0597,-0.0564,-0.0715,-0.0714,-0.0714,0,-0.0316,-0.0323,-0.0318,-0.0323,-0.0325,-0.0325,-0.034,-0.0352,-0.0387,-0.0411,-0.0448,-0.049,-0.0526,-0.0572,-0.063,-0.0633,-0.0674,-0.0706,-0.0706,-0.0621,-0.0641,-0.0598,-0.0556,-0.0712,-0.0712,-0.0712,-0.0713,0,-0.0281,-0.0284,-0.0281,-0.0285,-0.0301,-0.0299,-0.0307,-0.0335,-0.0336,-0.0366,-0.0362,-0.0425,-0.0439,-0.0508,-0.0573,-0.0607,-0.0619,-0.0676,-0.0618,-0.0611,-0.061,-0.0601,-0.0708,-0.0708,-0.0708,-0.0708,-0.0709,0,-0.0253,-0.0242,-0.0264,-0.0261,-0.0245,-0.0268,-0.0252,-0.0268,-0.0277,-0.0257,-0.0325,-0.0309,-0.0426,-0.045,-0.0532,-0.0541,-0.0586,-0.0588,-0.0591,-0.0593,-0.0584,-0.0729,-0.0731,-0.0707,-0.0708,-0.0708,-0.0708,0,-0.0214,-0.0232,-0.0219,-0.0231,-0.0229,-0.0218,-0.0208,-0.0196,-0.0208,-0.0176,-0.0178,-0.0215,-0.0228,-0.0317,-0.0402,-0.0455,-0.0499,-0.0497,-0.0467,-0.0464,-0.0496,-0.0497,-0.0431,-0.0427,-0.0424,-0.0421,-0.0419,0,-0.0194,-0.019,-0.0191,-0.0181,-0.0183,-0.017,-0.0156,-0.0164,-0.0144,-0.0107,-0.0081,-0.0076,-0.0021,-0.0077,-0.0203,-0.0277,-0.037,-0.0318,-0.0377,-0.0454,-0.0465,-0.0472,-0.0477,-0.0371,-0.0368,-0.0366,-0.0365,0,-0.0156,-0.0161,-0.0158,-0.0139,-0.0122,-0.0094,-0.0072,-0.0033,-0.002,0.0046,0.0135,0.02,0.0154,0.011,0.0014,-0.007,-0.0304,-0.0272,-0.0373,-0.042,-0.0389,-0.0402,-0.0412,-0.0346,-0.0348,-0.0349,-0.035,-0.0351,-0.0125,-0.0118,-0.012,-0.0094,-0.0066,-0.0011,0.0038,0.0098,0.0195,0.0325,0.0336,0.0453,0.0316,0.0253,0.0117,-0.0076,-0.01,-0.0195,-0.0206,-0.0219,-0.0193,-0.0155,-0.0063,-0.0063,-0.0064,-0.0064,-0.0064,0,-0.0094,-0.0093,-0.0073,-0.0042,0.0012,0.0016,0.0099,0.0188,0.0352,0.0471,0.0605,0.0552,0.0531,0.0349,0.0111,-0.0003,-0.009,-0.0066,-0.0173,-0.0188,-0.0203,-0.0182,-0.0047,-0.0047,-0.0047,-0.0048,0,0,-0.0083,-0.0071,-0.0068,0.0018,0.0061,0.0149,0.0217,0.038,0.0488,0.0673,0.0739,0.0816,0.06,0.0429,0.0233,0.0096,-0.0023,0.0063,0.0063,-0.0055,-0.0067,-0.0258,-0.0239,0,0,0,0,0]}],[{"header":{"parameterUnit":"m.s-1","parameterCategory":2,"la1":30.2991,"la2":30.254,"lo1":-89.0895,"lo2":-89.0444,"dy":0.0017,"dx":0.0017,"nx":28,"ny":28,"refTime":"2025-04-22T21:00:00:Z","depth":"4","parameterNumber":2,"parameterNumberName":"U-component_of_CURRENTS"},"data":[0,0,0,0,0,0,0,0,0,0,0,0,0,0,0,0,0,0,0,0,0,0,0,0,0,0,0,0,0,0,0,0,0,0,0,0,0,0,0,0,0,0,0,0,0,0,0,0,0,0,0,0,0,0,0,0,0,0,0.0416,0.0416,0,0.0449,0.0449,0.045,0.0487,0.0488,0.0489,0.0489,0.0565,0.0566,0.0568,0,0,0,0,0,0,0,0,0,0,0,0,0,0.0372,0.0373,0.0416,0.0416,0.0417,0.0449,0.0449,0.045,0.0487,0.0488,0.0489,0.049,0.0565,0.0566,0.0568,0,0,0,0,0,0,0,0,0,0,0,0,0,0.0396,0.0373,0.0416,0.044,0.0443,0.0449,0.0449,0.045,0.0487,0.0488,0.0489,0.049,0.0564,0.0566,0.0568,0.0561,0,0,0.0575,0.0575,0,0,0,0,0,0,0,0,0.0394,0.0397,0.0436,0.0439,0.0442,0.0466,0.0462,0.0489,0.0487,0.0469,0.0489,0.0491,0.0536,0.054,0.0542,0.0564,0.0567,0.0575,0.0576,0.0577,0.0577,0,0,0,0,0,0,0,0.0393,0.0396,0.0428,0.0437,0.044,0.0446,0.045,0.0467,0.0496,0.0471,0.0474,0.0479,0.0538,0.054,0.0544,0.0569,0.0575,0.0576,0.0578,0.0579,0.068,0.0682,0,0,0,0,0,0,0.0391,0.0394,0.0427,0.0429,0.0421,0.0446,0.0451,0.0456,0.0495,0.0502,0.0478,0.0481,0.0536,0.0542,0.0547,0.061,0.0577,0.0579,0.058,0.0679,0.0681,0.0682,0,0,0,0,0,0,0.039,0.0393,0.0425,0.0413,0.0418,0.0446,0.0452,0.0456,0.0481,0.0501,0.0509,0.0501,0.0537,0.0544,0.06,0.061,0.058,0.0582,0.0677,0.0679,0.0682,0.069,0,0,0,0,0,0,0.0388,0.0393,0.0403,0.0413,0.0419,0.0436,0.0451,0.0456,0.0482,0.0486,0.0522,0.0529,0.0538,0.0597,0.0602,0.0613,0.0583,0.0675,0.0678,0.0681,0.0688,0.0693,0.0696,0,0,0,0,0,0.0387,0.0388,0.0403,0.0407,0.0429,0.0436,0.044,0.0462,0.0482,0.0489,0.0535,0.0529,0.0617,0.06,0.0605,0.0617,0.0674,0.0677,0.0681,0.0686,0.0692,0.0696,0,0,0,0,0,0,0.0377,0.0393,0.0409,0.0418,0.0433,0.0444,0.0457,0.0472,0.051,0.053,0.0551,0.0561,0.0607,0.0619,0.06,0.0657,0.0643,0.0647,0.0645,0.0651,0.0654,0.0673,0.0585,0,0,0,0,0,0.0379,0.0383,0.0403,0.0411,0.0425,0.0447,0.0457,0.0473,0.0504,0.0522,0.0549,0.0588,0.0619,0.0643,0.0666,0.0702,0.0703,0.0714,0.0718,0.0722,0.0743,0.0751,0.0756,0.0693,0.0693,0.0693,0,0,0.0377,0.0387,0.039,0.0409,0.0429,0.0448,0.0456,0.0479,0.05,0.0525,0.0575,0.06,0.0632,0.0672,0.0693,0.0689,0.0739,0.0726,0.0728,0.0748,0.0754,0.076,0.0766,0.0695,0.0695,0.0695,0,0,0.0375,0.039,0.0401,0.0413,0.0444,0.0457,0.0468,0.0497,0.0521,0.0568,0.0592,0.0644,0.0681,0.0714,0.0734,0.078,0.0755,0.0772,0.0813,0.0819,0.0824,0.0828,0.0823,0.0827,0.0779,0.0779,0.0779,0,0.0376,0.0392,0.0404,0.0422,0.0437,0.0465,0.0487,0.0509,0.0552,0.058,0.0591,0.0673,0.0707,0.076,0.0787,0.0789,0.0777,0.0785,0.0822,0.0827,0.0831,0.0824,0.0828,0.078,0.078,0.078,0.078,0,0.0385,0.0404,0.0412,0.0445,0.0461,0.0479,0.0513,0.0542,0.0579,0.0608,0.0671,0.0718,0.0775,0.0783,0.0809,0.0855,0.083,0.0816,0.0803,0.0837,0.0829,0.0833,0.0781,0.0781,0.0781,0.0781,0,0,0.0364,0.0412,0.0413,0.0437,0.0475,0.0487,0.053,0.0575,0.0611,0.066,0.071,0.0785,0.0818,0.0846,0.0868,0.0891,0.092,0.0876,0.0876,0.086,0.0916,0.0873,0.0873,0.0895,0.0897,0.0898,0.0892,0,0.0371,0.0409,0.0427,0.0461,0.0488,0.0518,0.0551,0.0596,0.0641,0.0693,0.0755,0.0814,0.0835,0.0872,0.09,0.0929,0.0934,0.0923,0.0897,0.0897,0.0845,0.0878,0.0901,0.0895,0.0895,0.0896,0.0897,0,0.0373,0.0397,0.0438,0.0481,0.0496,0.0521,0.0578,0.0609,0.0684,0.072,0.0788,0.0836,0.0924,0.0914,0.0973,0.0958,0.0948,0.0948,0.0946,0.0913,0.0863,0.0859,0.0904,0.0903,0.0903,0.0902,0.0902,0,0.0353,0.04,0.0435,0.0447,0.0501,0.053,0.0564,0.063,0.0667,0.0749,0.0794,0.0873,0.0935,0.0947,0.0997,0.098,0.1024,0.0993,0.093,0.0925,0.0958,0.0954,0.0997,0.0997,0.0997,0.0997,0.0997,0,0.0345,0.0368,0.0433,0.0444,0.0484,0.0529,0.0577,0.0616,0.0689,0.0738,0.0818,0.0865,0.0946,0.0993,0.0999,0.0997,0.1027,0.0952,0.093,0.0961,0.0957,0.096,0.0955,0.0997,0.0997,0.0997,0.0997,0,0.032,0.0361,0.0393,0.0453,0.0476,0.0506,0.058,0.0613,0.0686,0.0751,0.0789,0.0886,0.0948,0.1001,0.1031,0.1004,0.1,0.0971,0.1012,0.0988,0.0888,0.0885,0.0904,0.0902,0.0901,0.09,0.0899,0,0.0316,0.0333,0.0388,0.0406,0.0437,0.049,0.0525,0.0601,0.0636,0.075,0.0776,0.0876,0.0932,0.0943,0.099,0.0992,0.0968,0.095,0.0922,0.0907,0.0883,0.0881,0.0879,0.0897,0.0897,0.0897,0.0897,0,0.0295,0.0316,0.034,0.0375,0.0412,0.0444,0.0504,0.053,0.0617,0.0698,0.0755,0.0806,0.0864,0.0905,0.0923,0.0913,0.0969,0.0937,0.0939,0.0912,0.09,0.0876,0.0876,0.0892,0.0893,0.0893,0.0894,0,0.0275,0.0283,0.0312,0.0339,0.0373,0.039,0.0428,0.0481,0.0529,0.0662,0.0672,0.0769,0.0848,0.0862,0.0874,0.0885,0.086,0.0817,0.0824,0.0829,0.0813,0.0787,0.0738,0,0,0,0,0,0.0257,0.0261,0.0277,0.0298,0.0324,0.0345,0.0407,0.0449,0.0546,0.0566,0.0622,0.0673,0.0727,0.0767,0.0762,0.0832,0.0856,0.0821,0.0807,0.087,0.0875,0.0866,0,0,0,0,0,0,0.0246,0.0258,0.0263,0.0255,0.0261,0.0286,0.0322,0.0386,0.0401,0.0506,0.0536,0.062,0.0677,0.0723,0.0745,0.0759,0.0732,0.088,0.0878,0.0868,0.0872,0.0876,0.0868,0,0,0,0,0]},{"header":{"parameterUnit":"m.s-1","parameterCategory":2,"la1":30.2991,"la2":30.254,"lo1":-89.0895,"lo2":-89.0444,"dy":0.0017,"dx":0.0017,"nx":28,"ny":28,"refTime":"2025-04-22T21:00:00:Z","depth":"4","parameterNumber":3,"parameterNumberName":"V-component_of_CURRENTS"},"data":[0,0,0,0,0,0,0,0,0,0,0,0,0,0,0,0,0,0,0,0,0,0,0,0,0,0,0,0,0,0,0,0,0,0,0,0,0,0,0,0,0,0,0,0,0,0,0,0,0,0,0,0,0,0,0,0,0,0,0.0366,0.0366,0,0.0364,0.0364,0.0364,0.0355,0.0355,0.0355,0.0355,0.0372,0.0372,0.0373,0,0,0,0,0,0,0,0,0,0,0,0,0,0.0344,0.0344,0.0366,0.0366,0.0366,0.0364,0.0364,0.0363,0.0355,0.0355,0.0355,0.0355,0.0372,0.0372,0.0373,0,0,0,0,0,0,0,0,0,0,0,0,0,0.0346,0.0344,0.0366,0.0364,0.0364,0.0364,0.0364,0.0363,0.0355,0.0355,0.0355,0.0355,0.0372,0.0372,0.0373,0.0374,0,0,0.0375,0.0375,0,0,0,0,0,0,0,0,0.0346,0.0346,0.0364,0.0364,0.0364,0.0362,0.0362,0.0369,0.0355,0.0355,0.0355,0.0355,0.0372,0.0373,0.0368,0.0375,0.0376,0.0375,0.0375,0.0375,0.0375,0,0,0,0,0,0,0,0.0346,0.0346,0.0362,0.0364,0.0365,0.0357,0.0357,0.0363,0.0361,0.0355,0.0356,0.036,0.0372,0.0367,0.0368,0.0376,0.0375,0.0375,0.0376,0.0376,0.0378,0.0378,0,0,0,0,0,0,0.0353,0.0346,0.0362,0.0362,0.0358,0.0358,0.0358,0.0361,0.0361,0.0362,0.036,0.036,0.0366,0.0368,0.0369,0.038,0.0375,0.0376,0.0376,0.0378,0.0378,0.0378,0,0,0,0,0,0,0.0352,0.0354,0.0362,0.0357,0.0358,0.0359,0.0361,0.0361,0.0362,0.0365,0.0365,0.0363,0.0366,0.0368,0.0379,0.038,0.0376,0.0377,0.0379,0.0378,0.0378,0.0397,0,0,0,0,0,0,0.0351,0.0354,0.0359,0.0357,0.0358,0.0365,0.0361,0.0361,0.0366,0.0365,0.0368,0.0369,0.0367,0.0378,0.038,0.0381,0.0377,0.0379,0.0378,0.0378,0.0396,0.0397,0.0397,0,0,0,0,0,0.0351,0.0356,0.0359,0.0362,0.0365,0.0365,0.0365,0.0364,0.0366,0.0365,0.037,0.0369,0.0375,0.0379,0.0381,0.0382,0.0379,0.0378,0.0378,0.0396,0.0397,0.0397,0,0,0,0,0,0,0.0348,0.0356,0.036,0.0368,0.0369,0.0365,0.0369,0.0368,0.037,0.0375,0.0374,0.0375,0.0381,0.0379,0.0383,0.0378,0.0374,0.0374,0.0387,0.0388,0.0388,0.0383,0.0378,0,0,0,0,0,0.0351,0.0361,0.0363,0.0371,0.0373,0.0372,0.0374,0.0374,0.0376,0.0377,0.0379,0.0379,0.0378,0.0382,0.038,0.0386,0.0367,0.0384,0.0384,0.0385,0.038,0.0352,0.0349,0.0375,0.0375,0.0375,0,0,0.0352,0.0361,0.0364,0.0372,0.0373,0.0375,0.0373,0.0379,0.0381,0.038,0.0387,0.0384,0.0379,0.0381,0.0383,0.0382,0.0367,0.0384,0.0385,0.0379,0.0351,0.0348,0.0346,0.0375,0.0375,0.0375,0,0,0.0356,0.0366,0.0372,0.0375,0.0384,0.0385,0.0389,0.0389,0.039,0.0396,0.0393,0.039,0.0394,0.0386,0.0383,0.0384,0.037,0.0385,0.0388,0.0361,0.0359,0.0356,0.033,0.0325,0.0387,0.0387,0.0387,0,0.0359,0.0368,0.0373,0.0379,0.0385,0.039,0.0395,0.0394,0.0399,0.0401,0.0401,0.0393,0.0391,0.0387,0.0385,0.0386,0.0369,0.039,0.0362,0.0359,0.0356,0.033,0.0324,0.0388,0.0388,0.0388,0.0388,0,0.0363,0.0373,0.0378,0.0388,0.0393,0.0401,0.0403,0.0408,0.0413,0.0411,0.041,0.0402,0.0396,0.0393,0.0391,0.0374,0.0367,0.0366,0.0362,0.0355,0.0327,0.0321,0.0389,0.0389,0.0388,0.0388,0,0,0.0361,0.0379,0.038,0.039,0.0401,0.0407,0.0412,0.0418,0.0423,0.042,0.0419,0.0409,0.0404,0.0399,0.0394,0.0371,0.0338,0.0363,0.0361,0.034,0.0279,0.0258,0.0249,0.0335,0.0334,0.0333,0.0268,0,0.0365,0.0382,0.0388,0.0403,0.0412,0.0418,0.0424,0.043,0.0431,0.0431,0.0418,0.0418,0.0408,0.0409,0.0382,0.0352,0.0323,0.0356,0.0286,0.0283,0.0268,0.0241,0.033,0.0263,0.0262,0.0261,0.026,0,0.0364,0.038,0.0397,0.0419,0.0423,0.0434,0.0448,0.0454,0.0452,0.0451,0.0441,0.0433,0.0408,0.0398,0.0331,0.0355,0.0315,0.0286,0.0282,0.025,0.025,0.027,0.0249,0.0249,0.025,0.0251,0.0252,0,0.0362,0.0385,0.0405,0.0411,0.0432,0.0444,0.0459,0.0464,0.0476,0.0468,0.0471,0.0436,0.0425,0.0368,0.031,0.0321,0.0227,0.0235,0.0174,0.0173,0.0205,0.0208,0.0174,0.0174,0.0175,0.0175,0.0175,0,0.0362,0.0376,0.041,0.0419,0.0446,0.0458,0.0483,0.0486,0.0498,0.051,0.0488,0.0479,0.0416,0.0362,0.0304,0.0216,0.022,0.0162,0.0149,0.0215,0.022,0.0201,0.0205,0.0172,0.0173,0.0173,0.0174,0,0.0348,0.037,0.0395,0.043,0.0446,0.0467,0.0511,0.0527,0.0534,0.0546,0.0547,0.0509,0.0435,0.0362,0.0263,0.0211,0.0128,0.0096,0.0165,0.0159,0.0094,0.01,0.0021,0.002,0.0018,0.0017,0.0017,0,0.034,0.0353,0.0404,0.0428,0.0448,0.0486,0.0515,0.0542,0.0559,0.056,0.0562,0.0506,0.0467,0.0307,0.0228,0.0102,0.0088,0.0043,0.0069,0.008,0.0076,0.0083,0.009,0.0015,0.0014,0.0014,0.0014,0,0.0324,0.0347,0.0369,0.0422,0.0463,0.0503,0.0545,0.0563,0.0588,0.0599,0.0564,0.0494,0.0404,0.0294,0.0191,0.0106,0.0071,0.003,0.0032,0.0057,0.0072,0.007,0.0078,0.001,0.001,0.0011,0.0011,0,0.0312,0.0326,0.0365,0.0409,0.0462,0.0505,0.0531,0.0553,0.0572,0.0581,0.0563,0.0481,0.0437,0.0294,0.0201,0.011,0.0094,0.0069,0.0069,0.0073,0.0109,0.0137,0.0072,0,0,0,0,0,0.0297,0.0314,0.0351,0.04,0.0455,0.0487,0.0543,0.0567,0.0598,0.0573,0.0571,0.0489,0.0351,0.0292,0.0195,0.0179,0.0077,0.0062,0.0048,-0.0013,-0.0009,0.0023,0,0,0,0,0,0,0.0286,0.0317,0.0339,0.0387,0.0421,0.0478,0.0517,0.054,0.0526,0.0543,0.0469,0.0452,0.0317,0.0398,0.0186,0.0161,0.0137,0.0005,0.0003,-0.0016,-0.0012,-0.0008,0.0027,0,0,0,0,0]}]]